SPACEBEE-145 (52411 NORAD) Tracking and Keplerian Element Data
This shows tracking and keplerian element data for the satellite.
Feedback or suggestion? Click here.
Element | Value |
Catalog | 52411 |
Name | SPACEBEE-145 |
Epoch Orbit | 1202 |
Epoch Day | 192.74472751 |
Epoch Year | 2022 |
RAAN | 277.0982 |
Inclination | 97.4505 |
Eccentricity | 0.0010708 |
Argument of Perigee | 94.6443 |
Mean Anonmoly | 265.6012 |
Mean Motion | 15.13658854 |
Decay Rate | 6.112E-05 |
L1 | 1 52411U 22047T 22192.74472751 .00006112 00000+0 34300-3 0 9993 |
L2 | 2 52411 97.4505 277.0982 0010708 94.6443 265.6012 15.13658854 12029 |
Live tracking and technical data element details for SPACEBEE-145 (NORAD 52411). SPACEBEE-145 can be tracked NOW for your location showing map with azimuth and elevation plus other details from your city location.
Track the satellite on the map from your city or location and see movement details for azimuth, elevation, latitude, longitude, range, height, and movement on the map or in text.
IsCatalogInMostPopularTable: catalog: 52411, numindb: 4
Update: records affected: 1
GetName: 52411 SPACEBEE-145
Hit Count: updated at: Sun, 14 Aug 2022 01:22:14 GMT